When you browse on this site, cookies collect data to enhance your experience and personalize the content and advertising you see.
Visit our Privacy Policy to learn more. By continuing to use the site, you agree to this use of cookies and data.
  • In Österreich
  • Länderverzeichnis
  • Für 7 Tage
  • Wassertemperatur
  • Satellitenkarten
  • Wetterkarte
  • News
  • Widgets
  • user-avatar
    Anmelden

    Stündliche Wetter Linz

    Heute, 23 März, Samstag

    Zeit Temperatur Niederschläge Wind Luftdruck Luftfeuchtigkeit
    00:00 +8°C° 0 mm 1 m/S 742 mmHg 80%
    01:00 +8°C° 0 mm 1 m/S 742 mmHg 80%
    02:00 +7°C° 0 mm 1 m/S 742 mmHg 80%
    03:00 +7°C° 0 mm 1 m/S 742 mmHg 80%
    04:00 +6°C° 0 mm 0 m/S 742 mmHg 80%
    05:00 +6°C° 0 mm 0 m/S 742 mmHg 79%
    06:00 +6°C° 0 mm 0 m/S 742 mmHg 78%
    07:00 +7°C° 0 mm 1 m/S 742 mmHg 78%
    08:00 +9°C° 0 mm 1 m/S 742 mmHg 71%
    09:00 +11°C° 0 mm 1 m/S 742 mmHg 64%
    10:00 +14°C° 0 mm 1 m/S 741 mmHg 58%
    11:00 +15°C° 0 mm 1 m/S 741 mmHg 55%
    12:00 +16°C° 0 mm 1 m/S 741 mmHg 53%
    13:00 +17°C° 0 mm 2 m/S 741 mmHg 51%
    14:00 +17°C° 0 mm 2 m/S 740 mmHg 51%
    15:00 +17°C° 0 mm 2 m/S 740 mmHg 51%
    16:00 +18°C° 0 mm 1 m/S 740 mmHg 51%
    17:00 +15°C° 0 mm 1 m/S 740 mmHg 58%
    18:00 +13°C° 0 mm 1 m/S 740 mmHg 65%
    19:00 +11°C° 0 mm 0 m/S 740 mmHg 71%
    20:00 +11°C° 0 mm 1 m/S 740 mmHg 74%
    21:00 +10°C° 0 mm 1 m/S 741 mmHg 76%
    22:00 +10°C° 0 mm 1 m/S 741 mmHg 78%
    23:00 +9°C° 0 mm 1 m/S 741 mmHg 79%

    Morgen, 24 März, Sonntag

    Zeit Temperatur Niederschläge Wind Luftdruck Luftfeuchtigkeit
    00:00 +9°C° 0 mm 1 m/S 741 mmHg 81%
    01:00 +9°C° 0 mm 1 m/S 741 mmHg 83%
    02:00 +8°C° 0 mm 1 m/S 740 mmHg 84%
    03:00 +8°C° 0 mm 1 m/S 740 mmHg 84%
    04:00 +8°C° 0 mm 1 m/S 740 mmHg 85%
    05:00 +8°C° 0 mm 1 m/S 740 mmHg 85%
    06:00 +7°C° 0 mm 0 m/S 740 mmHg 84%
    07:00 +7°C° 0 mm 0 m/S 740 mmHg 84%
    08:00 +9°C° 0 mm 0 m/S 739 mmHg 77%
    09:00 +12°C° 0 mm 0 m/S 739 mmHg 69%
    10:00 +14°C° 0 mm 0 m/S 739 mmHg 62%
    11:00 +15°C° 0 mm 0 m/S 739 mmHg 59%
    12:00 +18°C° 0 mm 1 m/S 738 mmHg 56%
    13:00 +19°C° 0 mm 1 m/S 738 mmHg 53%
    14:00 +18°C° 0 mm 2 m/S 737 mmHg 53%
    15:00 +18°C° 0 mm 2 m/S 737 mmHg 53%
    16:00 +18°C° 0 mm 2 m/S 737 mmHg 53%
    17:00 +16°C° 0 mm 2 m/S 737 mmHg 60%
    18:00 +14°C° 0 mm 2 m/S 737 mmHg 67%
    19:00 +12°C° 0 mm 2 m/S 737 mmHg 74%
    20:00 +12°C° 0.1 mm 2 m/S 738 mmHg 77%
    21:00 +10°C° 0.1 mm 2 m/S 738 mmHg 81%
    22:00 +11°C° 0.1 mm 1 m/S 738 mmHg 84%
    23:00 +10°C° 0.1 mm 1 m/S 738 mmHg 86%

    übermorgen, 25 März, Montag

    Zeit Temperatur Niederschläge Wind Luftdruck Luftfeuchtigkeit
    00:00 +10°C° 0.1 mm 1 m/S 738 mmHg 89%
    01:00 +9°C° 0.1 mm 1 m/S 738 mmHg 92%
    02:00 +9°C° 0.1 mm 1 m/S 738 mmHg 92%
    03:00 +9°C° 0.1 mm 1 m/S 738 mmHg 92%
    04:00 +9°C° 0.1 mm 1 m/S 738 mmHg 92%
    05:00 +9°C° 0.1 mm 1 m/S 737 mmHg 91%
    06:00 +8°C° 0.1 mm 2 m/S 737 mmHg 91%
    07:00 +8°C° 0.1 mm 2 m/S 737 mmHg 91%
    08:00 +8°C° 0.1 mm 3 m/S 737 mmHg 83%
    09:00 +8°C° 0.1 mm 4 m/S 737 mmHg 75%
    10:00 +9°C° 0.1 mm 5 m/S 737 mmHg 67%
    11:00 +9°C° 0 mm 6 m/S 737 mmHg 62%
    12:00 +9°C° 0 mm 6 m/S 736 mmHg 57%
    13:00 +10°C° 0 mm 7 m/S 736 mmHg 53%
    14:00 +10°C° 0 mm 7 m/S 736 mmHg 51%
    15:00 +9°C° 0 mm 8 m/S 735 mmHg 50%
    16:00 +9°C° 0 mm 8 m/S 735 mmHg 49%
    17:00 +8°C° 0.1 mm 7 m/S 736 mmHg 54%
    18:00 +5°C° 0.1 mm 7 m/S 737 mmHg 60%
    19:00 +4°C° 0.1 mm 6 m/S 738 mmHg 65%
    20:00 +3°C° 0 mm 6 m/S 738 mmHg 67%
    21:00 +2°C° 0 mm 5 m/S 739 mmHg 68%
    22:00 +2°C° 0 mm 5 m/S 740 mmHg 69%
    23:00 +1°C° 0 mm 5 m/S 740 mmHg 72%

    26 März, Dienstag

    Zeit Temperatur Niederschläge Wind Luftdruck Luftfeuchtigkeit
    00:00 +1°C° 0 mm 5 m/S 740 mmHg 74%
    01:00 +1°C° 0 mm 5 m/S 740 mmHg 76%
    02:00 0°C° 0 mm 5 m/S 741 mmHg 78%
    03:00 0°C° 0 mm 5 m/S 741 mmHg 80%
    04:00 0°C° 0 mm 4 m/S 741 mmHg 82%
    05:00 0°C° 0 mm 4 m/S 742 mmHg 82%
    06:00 0°C° 0 mm 5 m/S 743 mmHg 83%
    07:00 0°C° 0 mm 5 m/S 743 mmHg 83%
    08:00 +1°C° 0.1 mm 5 m/S 744 mmHg 78%
    09:00 +2°C° 0.1 mm 5 m/S 744 mmHg 73%
    10:00 +3°C° 0.1 mm 5 m/S 744 mmHg 68%
    11:00 +5°C° 0.1 mm 5 m/S 744 mmHg 64%
    12:00 +6°C° 0.1 mm 5 m/S 744 mmHg 59%
    13:00 +7°C° 0.1 mm 5 m/S 744 mmHg 55%
    14:00 +7°C° 0 mm 5 m/S 744 mmHg 54%
    15:00 +7°C° 0 mm 5 m/S 743 mmHg 53%
    16:00 +7°C° 0 mm 5 m/S 743 mmHg 52%
    17:00 +6°C° 0 mm 4 m/S 743 mmHg 58%
    18:00 +5°C° 0 mm 4 m/S 744 mmHg 65%
    19:00 +3°C° 0 mm 3 m/S 744 mmHg 71%
    20:00 +3°C° 0 mm 3 m/S 744 mmHg 72%
    21:00 +2°C° 0 mm 3 m/S 745 mmHg 73%
    22:00 +2°C° 0 mm 3 m/S 745 mmHg 74%
    23:00 +2°C° 0 mm 3 m/S 745 mmHg 76%

    27 März, Mittwoch

    Zeit Temperatur Niederschläge Wind Luftdruck Luftfeuchtigkeit
    00:00 +1°C° 0 mm 3 m/S 745 mmHg 77%
    01:00 +1°C° 0 mm 3 m/S 745 mmHg 79%
    02:00 +1°C° 0 mm 2 m/S 745 mmHg 80%
    03:00 +1°C° 0 mm 2 m/S 744 mmHg 80%
    04:00 -1°C° 0 mm 2 m/S 744 mmHg 81%
    05:00 +1°C° 0 mm 2 m/S 744 mmHg 79%
    06:00 +1°C° 0 mm 2 m/S 744 mmHg 76%
    07:00 +2°C° 0 mm 2 m/S 744 mmHg 73%
    08:00 +3°C° 0 mm 3 m/S 744 mmHg 67%
    09:00 +4°C° 0 mm 4 m/S 744 mmHg 61%
    10:00 +6°C° 0 mm 4 m/S 744 mmHg 55%
    11:00 +7°C° 0 mm 5 m/S 744 mmHg 54%
    12:00 +8°C° 0 mm 5 m/S 744 mmHg 53%
    13:00 +9°C° 0 mm 5 m/S 744 mmHg 52%
    14:00 +9°C° 0 mm 5 m/S 744 mmHg 55%
    15:00 +8°C° 0 mm 5 m/S 744 mmHg 57%
    16:00 +8°C° 0 mm 5 m/S 744 mmHg 60%
    17:00 +7°C° 0 mm 4 m/S 744 mmHg 66%
    18:00 +7°C° 0 mm 3 m/S 744 mmHg 72%
    19:00 +6°C° 0 mm 2 m/S 745 mmHg 78%
    20:00 +6°C° 0 mm 2 m/S 745 mmHg 80%
    21:00 +5°C° 0 mm 2 m/S 746 mmHg 83%
    22:00 +6°C° 0 mm 1 m/S 746 mmHg 86%
    23:00 +5°C° 0 mm 1 m/S 746 mmHg 88%

    28 März, Donnerstag

    Zeit Temperatur Niederschläge Wind Luftdruck Luftfeuchtigkeit
    00:00 +5°C° 0 mm 1 m/S 746 mmHg 89%
    01:00 +4°C° 0 mm 1 m/S 746 mmHg 91%
    02:00 +4°C° 0 mm 1 m/S 746 mmHg 91%
    03:00 +4°C° 0 mm 1 m/S 746 mmHg 91%
    04:00 +3°C° 0 mm 1 m/S 746 mmHg 91%
    05:00 +4°C° 0 mm 1 m/S 746 mmHg 89%
    06:00 +4°C° 0 mm 1 m/S 747 mmHg 88%
    07:00 +4°C° 0 mm 1 m/S 747 mmHg 86%
    08:00 +6°C° 0 mm 1 m/S 747 mmHg 79%
    09:00 +7°C° 0 mm 0 m/S 747 mmHg 73%
    10:00 +9°C° 0 mm 0 m/S 747 mmHg 67%
    11:00 +11°C° 0 mm 1 m/S 747 mmHg 65%
    12:00 +12°C° 0 mm 1 m/S 746 mmHg 63%
    13:00 +12°C° 0 mm 2 m/S 746 mmHg 61%
    14:00 +12°C° 0 mm 2 m/S 746 mmHg 62%
    15:00 +13°C° 0 mm 2 m/S 746 mmHg 62%
    16:00 +13°C° 0 mm 2 m/S 745 mmHg 62%
    17:00 +10°C° 0 mm 2 m/S 746 mmHg 69%
    18:00 +9°C° 0 mm 2 m/S 746 mmHg 76%
    19:00 +8°C° 0 mm 1 m/S 746 mmHg 83%
    20:00 +8°C° 0 mm 1 m/S 746 mmHg 85%
    21:00 +7°C° 0 mm 1 m/S 747 mmHg 87%
    22:00 +6°C° 0 mm 1 m/S 747 mmHg 89%
    23:00 +6°C° 0 mm 1 m/S 747 mmHg 89%
    Mehr zeigen